Location: Rounton
(54.4000°N, 1.3500°W)
Time: 17:56:00
(UTC+00:00)

Tiros 1 despin weight - Pass Details

Date: 29 November 2021
Orbit: 592 x 641 km, 48.2° (Epoch: 21 January)

Event Time Altitude Azimuth Distance (km) Brightness Sun altitude
Rises 19:04:23 0° 267° (W) 2,827 ? -27.6°
Reaches altitude 10° 19:06:52 10° 257° (WSW) 1,927 ? -28.0°
Enters shadow 19:09:59 28° 215° (SW) 1,132 ? -28.4°
